Terminal Aerodrome Forecast
Issued by NWS Dallas/Fort Worth, TX

Home | Current Version | Previous Version | Text Only | Print | Product List | Glossary On
Versions: 1 2 3 4 5 6 7 8 9 10 11 12 13 14 15 16 17 18 19 20 21 22 23 24 25 26 27 28 29 30
000
FTUS44 KFWD 201400 AAA
TAFACT
TAF AMD
KACT 201454Z 2015/2112 18014KT P6SM SCT018 BKN200
      TEMPO 2015/2017 BKN018
     FM201800 16014KT P6SM SCT060 BKN200
     FM211100 17013KT P6SM BKN015=

USA.gov is the U.S. government's official web portal to all federal, state and local government web resources and services.